User: anonymous   Login
Location: Unspecified
(0.0000°N, 0.0000°E)
Time: 00:06:09
(UTC+00:00)
Language:

STARLINK-36079 - Orbit

View from above orbital plane
View from above orbital plane
View from above satellite
View from above satellite

Ground track
Ground track

The orbit is defined by the following mean orbital elements,

1 66897U          26145.58335647 +.00000000 +00000-0 +23298-1 0 00003
2 66897  53.1597  27.1100 0002015 155.6218 268.0821 15.33628428    04
Epoch (UTC): 25 May 2026 14:00:01
Eccentricity: 0.0002015
inclination: 53.1597°
perigee height: 464 km
apogee height: 466 km
right ascension of ascending node: 27.1100°
argument of perigee: 155.6218°
revolutions per day: 15.33628428
mean anomaly at epoch: 268.0821°

The dashed part of the orbit path shows where the satellite is in the earth's shadow,  

DLR